Temp
53 54 54 54 55 54 54 54 54 54 54 54 55 55 56 56 55 53 52 52 50 47 51 54 57 56 58 58 56 59 61 63 66 63 64 61 63 63 62 61 62 64 62 61 59 58 56 67 70 67 70 67 71 72
53 52 53 54 55 54 54 53 53 53 54 54 55 55 56 55 55 52 50 54 54 48 51 53 58 61 61 61 58 59 58 57 62 62 62 61 60 61 60 58 61 61 65 64 64 65 63 67 66 69 70 70 72 73
53 53 53 54 54 54 53 53 53 53 54 54 54 55 55 55 54 53 52 52 50 48 52 52 58 62 63 61 68 57 62 60 62 61 64 63 59 64 61 61 61 61 61 63 62 63 64 65 68 70 73 72 73 74
52 52 53 54 54 54 53 53 53 53 53 54 54 54 55 54 54 53 52 52 51 48 44 55 62 60 64 64 64 66 63 64 63 64 64 64 63 62 62 64 66 65 64 61 59 62 65 66 67 70 70 71 70 70
52 52 53 53 54 54 53 53 53 53 53 53 54 54 55 54 53 52 51 52 53 48 45 50 58 61 63 62 63 64 63 61 63 65 64 61 62 63 61 66 65 66 62 65 63 67 68 67 67 70 70 68 70 70
53 52 53 53 53 53 53 53 53 53 53 53 53 53 54 53 51 51 48 52 53 52 45 45 57 57 62 62 62 62 63 62 63 64 62 62 61 64 63 63 63 66 66 70 67 69 68 67 67 69 67 67 67 67
53 53 53 53 53 53 53 52 52 52 52 52 52 52 53 52 53 50 48 52 51 52 47 46 51 60 60 61 62 64 62 62 62 60 61 64 64 66 64 62 66 67 68 65 68 67 63 66 65 67 66 65 63 63
52 52 52 52 52 52 52 52 52 52 52 52 52 53 53 51 51 51 56 53 52 50 49 43 49 56 61 60 59 60 63 64 59 59 62 61 62 63 61 63 66 66 64 64 65 67 70 66 65 65 66 65 62 60
52 52 52 52 52 52 52 52 52 52 52 52 53 52 53 52 51 52 54 55 53 50 45 45 43 46 59 58 59 61 62 59 59 61 60 61 58 57 61 62 63 64 66 63 64 65 66 65 64 64 64 63 60 58
52 52 52 52 52 52 52 52 52 52 52 51 53 50 48 53 55 56 52 49 49 51 49 46 47 48 53 57 56 58 58 56 54 57 61 59 58 61 63 63 64 64 65 65 61 59 62 62 62 62 61 61 59 58
52 52 52 52 52 52 52 52 52 51 51 51 47 46 52 55 52 49 45 45 46 45 48 50 49 48 56 53 53 56 54 54 50 54 54 54 54 58 60 61 63 64 65 67 68 68 68 66 62 60 59 59 59 59
52 52 52 52 52 52 52 52 52 52 50 50 49 52 52 51 48 44 42 45 44 44 50 46 51 52 55 53 55 53 52 52 48 55 53 48 53 55 59 61 61 64 65 65 66 64 63 62 63 60 59 58 57 57
51 51 51 51 52 52 52 52 52 52 52 52 49 46 45 45 37 39 37 43 44 49 52 51 49 54 54 54 54 53 51 50 55 50 50 54 55 56 58 60 60 64 65 64 63 63 62 60 61 60 57 57 58 57
51 51 51 52 52 52 53 52 53 53 52 45 42 34 41 40 43 42 43 44 49 48 50 49 47 52 54 52 52 51 51 52 48 46 49 55 55 57 59 61 62 61 63 62 61 61 59 58 58 58 58 58 57 56
52 52 53 52 53 52 52 52 51 53 49 42 43 36 40 44 46 49 49 50 49 50 48 50 52 53 50 51 51 52 48 47 50 50 55 56 56 57 58 60 61 60 61 61 61 60 59 58 58 57 58 59 59 57
52 52 51 53 52 52 52 52 52 51 48 45 43 42 45 43 44 47 49 47 49 49 50 47 49 49 48 52 49 49 48 47 52 54 56 56 56 58 58 59 59 60 59 60 61 60 59 58 58 58 58 59 59 59
51 50 52 52 52 51 51 51 50 47 44 42 45 48 47 46 46 46 48 49 52 49 48 49 46 48 49 49 48 51 50 51 52 51 55 56 57 56 57 59 60 60 58 59 60 60 58 57 59 58 56 58 60 59
49 52 52 52 51 51 52 49 47 45 43 47 43 48 48 49 48 48 49 50 50 49 49 45 48 49 49 47 49 51 52 52 54 56 56 57 57 57 59 59 59 57 56 56 58 54 55 57 58 60 59 58 58 59
50 52 52 53 52 49 46 46 46 40 43 45 46 47 47 48 50 50 49 50 51 50 48 49 47 49 50 51 52 51 52 53 54 53 52 56 58 59 58 55 56 60 58 54 55 55 59 61 63 62 62 62 62 63
52 52 52 53 53 46 43 43 46 41 40 42 44 43 45 45 48 49 49 48 49 48 45 46 50 52 53 54 54 53 56 56 58 55 55 59 59 60 59 58 54 53 53 58 61 56 62 61 63 63 63 59 56 62
51 50 51 51 48 46 44 43 42 41 41 39 43 43 44 47 46 47 47 50 48 47 46 50 52 54 55 55 55 56 56 57 53 54 53 53 55 57 56 60 60 61 60 61 61 60 56 63 65 64 63 63 63 64
48 51 47 48 43 41 39 43 40 40 37 38 41 43 41 43 45 46 49 47 47 46 48 48 49 52 52 53 54 54 54 53 52 51 52 53 59 59 59 61 62 59 60 59 60 64 64 65 65 65 64 64 58 63
50 49 45 44 39 37 39 45 40 42 39 44 46 47 47 47 47 50 46 47 48 50 52 51 52 52 52 54 54 56 57 56 54 58 60 59 58 59 61 62 65 64 63 63 65 65 64 52 58 62 63 60 61 61
51 45 42 41 40 41 47 46 47 46 51 52 51 49 50 50 58 54 49 50 53 55 54 54 56 54 56 56 58 59 60 60 60 59 61 60 60 61 63 64 65 64 65 66 65 63 63 64 54 63 62 61 61 61
40 41 41 38 45 45 51 53 54 54 50 52 51 52 51 56 50 49 49 52 53 57 58 58 59 61 57 55 60 60 60 62 62 63 64 64 63 63 63 64 64 63 63 60 61 63 63 64 64 63 62 61 61 60
36 46 41 50 50 48 52 51 52 52 52 51 51 53 53 52 48 45 51 55 57 59 60 59 58 58 59 58 55 57 59 59 61 59 64 64 61 62 65 59 60 61 61 63 65 63 62 63 63 62 62 60 48 59
45 52 54 55 54 54 53 52 54 52 49 48 49 50 50 42 41 50 59 61 60 61 61 62 62 64 63 63 63 63 64 63 62 63 62 62 66 67 67 65 61 65 66 65 65 64 63 63 63 63 63 64 64 63
52 53 52 55 57 55 51 51 50 49 51 54 55 49 48 49 49 58 61 62 61 62 61 61 61 63 63 62 63 65 65 65 63 63 62 64 65 65 65 67 66 45 65 67 67 67 65 65 64 63 62 62 63 65
56 57 59 55 56 55 53 54 55 57 55 59 54 53 52 54 57 59 61 62 65 64 64 65 63 64 64 64 63 64 65 66 62 58 57 58 59 62 64 66 66 66 67 66 46 54 63 64 65 65 65 65 65 65
58 58 58 56 54 53 56 58 59 60 60 60 60 60 58 61 61 63 65 64 62 61 64 65 64 62 65 65 64 64 65 65 65 63 60 60 62 65 65 64 64 65 64 61 61 64 45 54 53 58 57 60 60 59
59 61 58 58 56 59 61 62 63 64 63 62 62 61 58 61 66 65 64 63 65 66 65 64 62 64 60 62 64 63 63 66 64 63 64 66 65 63 62 61 62 63 63 63 60 59 60 58 58 57 58 58 58 55
59 56 57 55 57 60 59 58 60 59 60 61 61 63 63 62 59 62 67 66 65 66 58 62 64 65 66 67 66 65 48 65 65 65 63 64 64 63 63 63 63 62 63 64 64 62 60 59 58 57 57 57 57 57
59 59 57 57 56 56 58 58 57 55 57 57 58 58 58 59 57 64 69 67 66 65 66 67 67 67 65 65 66 65 53 65 60 46 45 44 44 51 61 65 64 63 62 63 64 64 63 62 61 60 60 60 61 61
MSLP
1016.48 1016.65 1016.80 1016.78 1016.77 1016.87 1017.01 1017.05 1016.99 1016.88 1016.77 1016.47 1016.06 1015.91 1015.76 1015.69 1015.61 1015.77 1015.68 1015.83 1015.44 1014.12 1012.15 1011.45 1010.64 1009.79 1009.24 1008.74 1007.99 1007.51 1006.94 1006.02 1005.33 1004.57 1004.40 1004.60 1004.61 1005.31 1005.59 1006.26 1006.38 1006.41 1006.86 1007.51 1008.17 1008.02 1008.34 1008.53 1008.67 1008.64 1008.63 1008.97 1009.11 1009.68
1016.03 1016.22 1016.36 1016.57 1016.47 1016.49 1016.75 1016.85 1016.74 1016.64 1016.48 1016.28 1015.94 1015.75 1015.66 1015.67 1015.57 1015.57 1015.48 1015.70 1015.54 1014.82 1012.69 1011.99 1011.03 1010.35 1009.97 1009.53 1009.08 1008.27 1007.69 1006.96 1006.33 1005.49 1005.29 1005.28 1005.45 1005.84 1006.03 1006.61 1007.30 1007.56 1007.50 1007.61 1008.55 1008.67 1009.11 1009.34 1009.37 1009.33 1009.36 1009.23 1009.62 1009.96
1015.49 1015.76 1015.97 1016.10 1016.19 1016.23 1016.41 1016.56 1016.51 1016.37 1016.35 1016.17 1015.93 1015.67 1015.55 1015.46 1015.41 1015.36 1015.38 1015.45 1015.36 1014.39 1012.38 1011.43 1009.84 1009.47 1009.49 1009.47 1009.11 1008.57 1007.92 1007.72 1006.95 1006.95 1005.77 1005.45 1005.51 1005.88 1005.94 1006.61 1007.14 1008.01 1008.25 1008.24 1008.95 1009.48 1009.64 1009.90 1010.00 1009.93 1009.87 1009.90 1010.35 1010.70
1014.98 1015.35 1015.60 1015.75 1015.93 1015.95 1016.18 1016.32 1016.31 1016.24 1016.18 1016.14 1015.90 1015.59 1015.36 1015.31 1015.26 1015.29 1015.22 1015.41 1015.34 1014.60 1013.06 1010.39 1009.64 1009.30 1008.94 1008.91 1008.85 1008.52 1008.31 1008.11 1007.75 1006.97 1006.13 1005.73 1005.79 1006.63 1006.47 1006.53 1006.87 1007.76 1008.34 1008.68 1009.45 1009.90 1010.19 1010.44 1010.61 1010.63 1010.74 1010.91 1011.18 1011.64
1014.52 1014.93 1015.25 1015.38 1015.56 1015.76 1015.93 1016.11 1016.19 1016.16 1016.05 1015.86 1015.62 1015.42 1015.22 1015.16 1015.12 1015.14 1015.14 1015.16 1015.21 1015.12 1013.44 1010.95 1009.75 1008.93 1008.73 1008.57 1008.35 1008.37 1008.34 1008.07 1007.39 1006.61 1006.33 1006.66 1006.97 1006.95 1007.32 1007.07 1007.21 1007.76 1008.01 1008.00 1008.15 1008.87 1009.45 1010.20 1010.93 1011.16 1011.20 1011.64 1012.02 1012.36
1014.33 1014.68 1015.02 1015.20 1015.37 1015.57 1015.71 1015.84 1015.98 1016.03 1015.97 1015.81 1015.59 1015.33 1015.18 1015.23 1015.17 1015.10 1015.01 1015.09 1015.15 1014.96 1014.05 1011.87 1010.05 1009.22 1008.57 1008.29 1008.24 1008.25 1008.12 1007.95 1007.62 1007.00 1007.19 1007.47 1007.71 1007.42 1006.83 1006.81 1007.22 1007.53 1007.95 1007.93 1008.34 1009.25 1009.79 1010.48 1011.23 1011.56 1011.86 1012.41 1012.91 1013.37
1014.25 1014.57 1014.84 1015.05 1015.25 1015.42 1015.54 1015.72 1015.86 1015.91 1015.88 1015.74 1015.55 1015.39 1015.24 1015.22 1015.19 1014.97 1014.93 1014.83 1014.98 1014.92 1014.01 1012.03 1010.04 1009.17 1008.78 1008.46 1008.36 1008.31 1008.29 1008.03 1007.81 1007.72 1007.64 1007.47 1007.45 1007.12 1007.15 1006.95 1007.33 1007.99 1008.48 1008.93 1009.17 1009.64 1010.63 1010.97 1011.43 1012.09 1012.62 1013.34 1013.99 1014.64
1014.33 1014.61 1014.83 1015.05 1015.25 1015.34 1015.48 1015.66 1015.77 1015.76 1015.69 1015.54 1015.36 1015.19 1015.11 1015.23 1015.08 1014.66 1014.28 1014.34 1014.88 1014.65 1014.10 1012.49 1010.46 1009.29 1008.96 1008.37 1008.34 1008.70 1008.13 1008.08 1008.46 1008.41 1008.25 1007.97 1008.02 1007.82 1007.48 1007.54 1007.90 1008.60 1009.10 1009.55 1009.96 1010.17 1010.28 1011.39 1012.27 1012.83 1013.35 1013.84 1014.40 1015.20
1014.53 1014.71 1014.94 1015.15 1015.27 1015.33 1015.44 1015.57 1015.62 1015.58 1015.44 1015.31 1015.20 1015.16 1015.18 1014.93 1014.50 1014.41 1014.08 1014.06 1014.63 1014.86 1013.51 1012.56 1011.29 1009.95 1009.24 1008.92 1008.73 1008.68 1008.50 1008.42 1009.27 1008.72 1008.86 1008.74 1008.60 1007.98 1007.93 1008.02 1008.25 1008.81 1009.07 1009.79 1010.45 1010.81 1011.32 1011.88 1012.66 1013.27 1013.72 1014.30 1014.95 1015.85
1014.80 1014.94 1015.08 1015.19 1015.27 1015.38 1015.51 1015.58 1015.54 1015.42 1015.31 1015.32 1015.26 1015.07 1014.45 1014.40 1014.27 1014.16 1014.25 1014.34 1014.25 1013.80 1013.37 1012.49 1012.12 1010.64 1010.16 1009.13 1009.11 1009.14 1009.25 1009.35 1009.21 1009.54 1009.44 1008.97 1008.60 1008.43 1008.48 1008.64 1008.85 1009.30 1009.68 1010.12 1010.55 1011.39 1011.99 1012.41 1013.14 1013.77 1014.38 1015.02 1015.64 1016.33
1015.07 1015.11 1015.17 1015.23 1015.32 1015.43 1015.51 1015.52 1015.52 1015.54 1015.50 1015.51 1015.24 1014.88 1014.50 1014.16 1014.10 1013.98 1013.76 1013.70 1013.56 1013.05 1012.89 1012.32 1011.93 1011.00 1010.34 1009.82 1009.43 1009.47 1009.33 1009.67 1009.50 1009.82 1009.76 1009.51 1009.06 1008.72 1008.86 1009.03 1009.21 1009.55 1009.96 1010.36 1010.71 1011.25 1011.86 1012.47 1013.47 1014.28 1015.14 1015.74 1016.34 1016.88
1015.28 1015.34 1015.42 1015.51 1015.55 1015.54 1015.50 1015.46 1015.61 1015.66 1015.57 1015.53 1015.40 1015.03 1014.64 1014.17 1013.94 1013.77 1013.56 1013.47 1013.14 1012.66 1012.38 1012.11 1011.55 1011.26 1010.57 1010.38 1009.55 1009.73 1009.38 1009.70 1009.52 1010.04 1009.85 1009.42 1009.15 1009.27 1009.35 1009.53 1009.76 1010.08 1010.46 1010.86 1011.31 1011.92 1012.77 1013.53 1014.18 1014.93 1015.73 1016.44 1017.00 1017.44
1015.75 1015.72 1015.70 1015.69 1015.68 1015.63 1015.65 1015.76 1015.77 1015.57 1015.42 1015.22 1015.17 1014.93 1014.79 1014.50 1014.02 1013.42 1013.12 1012.88 1012.64 1012.54 1012.27 1011.92 1011.37 1011.00 1010.70 1010.41 1009.67 1009.43 1009.25 1009.62 1009.91 1009.85 1009.40 1009.05 1009.32 1009.56 1009.86 1010.13 1010.41 1010.69 1011.03 1011.46 1012.11 1012.73 1013.45 1014.28 1015.04 1015.62 1016.34 1016.97 1017.38 1017.76
1016.00 1015.90 1015.82 1015.81 1015.75 1015.77 1015.95 1016.02 1015.85 1015.67 1015.68 1015.54 1015.24 1015.05 1014.70 1014.16 1013.82 1013.65 1013.30 1013.10 1012.96 1012.77 1012.46 1012.17 1011.55 1010.84 1010.51 1010.05 1009.78 1009.27 1009.79 1009.62 1009.65 1009.44 1009.08 1009.22 1009.48 1009.88 1010.29 1010.62 1010.66 1011.09 1011.53 1011.96 1012.66 1013.44 1014.24 1015.02 1015.78 1016.40 1016.86 1017.32 1017.63 1018.10
1016.15 1015.97 1015.92 1016.06 1016.07 1016.19 1016.25 1016.18 1016.09 1015.86 1015.80 1015.63 1015.55 1015.14 1014.73 1014.49 1014.04 1013.80 1013.55 1013.26 1013.23 1013.04 1012.71 1012.07 1011.44 1010.95 1010.32 1010.01 1010.03 1009.78 1009.69 1009.40 1009.37 1009.28 1009.43 1009.73 1010.06 1010.31 1010.61 1010.88 1011.24 1011.68 1012.16 1012.74 1013.46 1014.17 1014.93 1015.60 1016.17 1016.77 1017.26 1017.62 1017.95 1018.33
1016.57 1016.41 1016.77 1016.69 1016.64 1016.59 1016.54 1016.41 1016.29 1016.28 1016.08 1015.84 1015.69 1015.28 1014.91 1014.61 1014.18 1013.95 1013.68 1013.48 1013.32 1013.01 1012.77 1012.46 1011.46 1010.80 1010.57 1010.12 1009.94 1009.65 1009.69 1009.64 1009.86 1010.01 1010.24 1010.52 1010.61 1010.76 1011.06 1011.43 1011.87 1012.35 1012.93 1013.52 1014.12 1014.75 1015.35 1015.89 1016.27 1016.78 1017.41 1017.71 1018.00 1018.16
1016.78 1017.07 1017.05 1016.95 1016.91 1016.84 1016.79 1016.69 1016.53 1016.26 1016.16 1015.86 1015.42 1015.31 1015.02 1014.71 1014.40 1014.20 1014.07 1013.63 1013.46 1013.01 1012.44 1012.11 1011.36 1010.98 1010.91 1010.40 1010.15 1010.23 1010.25 1010.55 1010.66 1010.74 1010.82 1010.99 1011.06 1011.33 1011.70 1012.00 1012.49 1012.95 1013.49 1013.94 1014.43 1015.06 1015.70 1016.25 1016.62 1016.92 1017.19 1017.59 1017.77 1018.03
1017.46 1017.52 1017.46 1017.34 1017.21 1017.06 1016.92 1016.82 1016.61 1016.26 1015.76 1015.55 1015.41 1014.98 1014.93 1014.58 1014.21 1014.06 1014.01 1013.86 1013.55 1013.24 1012.87 1012.56 1012.00 1010.99 1010.58 1010.48 1010.41 1010.76 1010.94 1011.16 1011.18 1011.10 1011.25 1011.41 1011.53 1011.81 1012.12 1012.41 1012.95 1013.44 1013.88 1014.36 1014.89 1015.35 1015.89 1016.29 1016.53 1016.65 1017.07 1017.50 1017.74 1017.86
1017.75 1017.70 1017.70 1017.60 1017.32 1017.13 1016.92 1016.86 1016.84 1016.38 1015.93 1015.70 1015.37 1015.21 1014.95 1014.52 1014.19 1014.04 1013.92 1013.82 1013.76 1013.57 1013.31 1012.57 1011.79 1011.04 1010.85 1011.07 1011.07 1011.31 1011.39 1011.58 1011.61 1011.84 1011.91 1011.93 1011.96 1012.13 1012.64 1013.13 1013.43 1013.76 1014.30 1014.66 1015.09 1015.45 1015.82 1016.08 1016.09 1016.44 1016.72 1017.01 1017.01 1017.23
1017.88 1017.89 1017.88 1017.60 1017.30 1017.20 1017.01 1016.84 1016.87 1016.62 1016.12 1015.92 1015.61 1015.18 1014.75 1014.38 1013.99 1013.80 1013.56 1013.51 1013.42 1013.44 1013.12 1012.52 1011.82 1011.63 1011.57 1011.71 1011.79 1011.79 1011.87 1012.01 1011.90 1012.08 1012.30 1012.35 1012.58 1012.64 1012.92 1013.28 1013.81 1014.21 1014.60 1014.98 1015.17 1015.41 1015.65 1015.95 1016.10 1016.29 1016.44 1016.83 1017.13 1017.04
1018.09 1018.04 1017.88 1017.83 1017.74 1017.69 1017.55 1017.11 1016.97 1017.04 1016.63 1016.09 1015.46 1014.97 1014.34 1013.95 1013.66 1013.48 1013.14 1013.15 1013.17 1013.12 1012.95 1012.52 1012.21 1012.11 1012.27 1012.34 1012.25 1012.29 1012.43 1012.37 1012.42 1012.54 1012.78 1013.14 1013.18 1013.11 1013.37 1013.59 1013.94 1014.20 1014.35 1014.54 1014.83 1015.21 1015.44 1015.39 1015.55 1015.94 1016.15 1016.36 1016.60 1016.97
1018.29 1018.21 1018.14 1018.07 1018.10 1018.07 1017.94 1017.53 1017.30 1016.93 1016.71 1015.83 1015.00 1014.33 1013.88 1013.48 1013.08 1012.94 1013.17 1013.24 1013.45 1013.78 1012.98 1012.21 1011.83 1012.08 1012.52 1012.72 1012.97 1013.03 1013.09 1012.87 1012.83 1012.94 1012.97 1013.02 1013.30 1013.33 1013.44 1013.56 1013.70 1013.95 1014.17 1014.43 1014.64 1014.62 1014.82 1015.13 1015.49 1015.72 1015.93 1016.06 1016.54 1016.82
1018.36 1018.39 1018.26 1018.10 1017.91 1017.73 1017.35 1017.00 1016.43 1015.73 1015.17 1014.16 1013.69 1013.04 1012.93 1012.78 1012.67 1012.78 1012.87 1013.52 1013.64 1013.79 1013.05 1013.17 1012.87 1012.52 1012.73 1012.90 1013.03 1013.21 1013.27 1013.29 1013.49 1013.40 1013.38 1013.43 1013.41 1013.46 1013.44 1013.47 1013.55 1013.76 1013.98 1014.28 1014.50 1014.57 1014.81 1015.31 1015.52 1015.66 1015.81 1016.07 1016.25 1016.59
1018.26 1018.08 1017.73 1017.50 1017.25 1016.43 1016.02 1015.49 1015.05 1014.42 1013.57 1012.98 1012.83 1012.80 1012.84 1012.85 1012.36 1012.33 1012.94 1013.22 1013.37 1013.29 1013.15 1013.22 1013.31 1013.51 1013.61 1013.55 1013.27 1013.19 1013.27 1013.31 1013.39 1013.40 1013.35 1013.34 1013.27 1013.37 1013.47 1013.56 1013.75 1013.99 1014.11 1014.22 1014.47 1014.73 1014.96 1015.11 1015.39 1015.41 1015.63 1015.82 1016.07 1016.22
1018.25 1017.75 1017.33 1016.59 1016.27 1015.54 1014.45 1014.01 1013.70 1013.38 1013.18 1013.07 1012.84 1012.84 1013.13 1013.03 1012.86 1012.99 1013.30 1013.52 1013.40 1013.26 1013.26 1013.24 1013.17 1013.00 1013.15 1013.36 1013.26 1013.31 1013.38 1013.22 1013.00 1012.92 1013.09 1013.13 1013.24 1013.39 1013.54 1013.76 1013.92 1014.17 1014.41 1014.45 1014.48 1014.62 1014.83 1015.01 1015.14 1015.27 1015.43 1015.61 1015.73 1015.97
1017.24 1016.47 1016.24 1015.22 1014.84 1014.42 1013.83 1013.38 1013.17 1013.18 1013.18 1012.93 1013.21 1013.33 1013.35 1013.34 1013.50 1013.99 1013.91 1013.76 1013.63 1013.51 1013.41 1013.34 1013.21 1013.14 1013.28 1013.37 1013.42 1013.48 1013.56 1013.47 1013.33 1013.31 1013.23 1013.29 1013.43 1013.42 1013.27 1013.66 1013.79 1014.12 1014.51 1014.46 1014.33 1014.43 1014.63 1014.83 1014.95 1015.06 1015.10 1015.29 1015.64 1015.69
1016.27 1015.35 1014.84 1014.28 1014.09 1013.72 1013.37 1013.32 1013.16 1013.04 1013.05 1013.14 1013.33 1013.41 1013.60 1014.25 1014.70 1014.65 1014.35 1013.76 1013.87 1013.74 1013.74 1013.62 1013.48 1013.24 1013.30 1013.42 1013.52 1013.69 1013.67 1013.57 1013.45 1013.51 1013.55 1013.50 1013.39 1013.49 1013.56 1013.52 1013.68 1013.86 1014.11 1014.23 1014.28 1014.35 1014.40 1014.50 1014.65 1014.75 1014.81 1014.88 1015.00 1015.13
1015.70 1015.18 1014.42 1013.96 1013.38 1013.46 1013.46 1013.59 1013.64 1013.76 1013.75 1013.82 1013.62 1013.82 1014.09 1014.37 1014.81 1014.54 1014.40 1014.28 1014.30 1014.21 1014.15 1014.09 1014.06 1013.93 1013.84 1013.91 1013.89 1013.72 1013.67 1013.71 1013.77 1013.81 1013.89 1013.80 1013.89 1013.93 1013.98 1013.94 1014.06 1014.25 1014.19 1014.30 1014.37 1014.43 1014.43 1014.39 1014.41 1014.47 1014.52 1014.53 1014.57 1014.67
1015.16 1014.69 1014.18 1014.06 1013.88 1013.92 1014.21 1014.19 1014.11 1014.26 1014.53 1014.01 1014.08 1014.37 1014.88 1015.03 1015.05 1014.78 1014.53 1014.50 1014.39 1014.23 1014.15 1014.09 1014.25 1014.31 1014.31 1014.30 1014.26 1014.15 1013.98 1013.81 1013.79 1013.90 1013.98 1013.96 1013.99 1014.09 1014.26 1014.22 1014.21 1014.22 1014.15 1014.17 1014.49 1014.53 1014.45 1014.47 1014.38 1014.35 1014.32 1014.31 1014.39 1014.43
1014.94 1014.83 1014.45 1014.56 1014.57 1014.62 1014.85 1014.92 1014.72 1014.75 1014.68 1014.72 1014.70 1014.76 1014.99 1014.92 1015.01 1014.93 1014.64 1014.51 1014.41 1014.36 1014.30 1014.17 1014.35 1014.39 1014.18 1014.06 1014.13 1014.17 1014.28 1014.20 1014.10 1014.05 1014.02 1014.06 1014.10 1014.16 1014.19 1014.11 1014.04 1014.00 1014.17 1014.24 1014.13 1014.08 1014.54 1014.65 1014.71 1014.71 1014.59 1014.45 1014.46 1014.50
1014.73 1014.51 1014.63 1014.80 1015.00 1015.13 1015.21 1015.31 1015.15 1014.96 1014.88 1014.91 1014.89 1014.88 1015.11 1015.09 1014.74 1014.81 1014.70 1014.70 1014.57 1014.43 1014.29 1014.35 1014.44 1014.41 1014.38 1014.27 1014.17 1014.09 1014.04 1014.34 1014.45 1014.45 1014.43 1014.40 1014.40 1014.33 1014.27 1014.17 1014.06 1013.96 1013.85 1013.74 1013.83 1013.82 1013.96 1014.11 1014.15 1014.18 1014.14 1014.03 1013.99 1014.06
1014.56 1014.71 1014.69 1014.74 1015.03 1015.20 1015.21 1015.24 1015.25 1015.28 1015.25 1015.10 1015.08 1015.08 1015.05 1014.91 1014.77 1014.73 1014.80 1014.72 1014.54 1014.32 1014.57 1014.36 1014.17 1014.03 1014.23 1014.23 1014.29 1014.30 1014.57 1014.20 1014.18 1014.16 1014.24 1014.20 1014.20 1014.26 1014.18 1014.07 1013.97 1013.85 1013.60 1013.33 1013.12 1013.25 1013.40 1013.46 1013.49 1013.56 1013.35 1013.27 1013.30 1013.35
1014.63 1014.75 1014.92 1014.99 1015.08 1015.11 1015.38 1015.33 1015.33 1015.45 1015.38 1015.32 1015.32 1015.38 1015.34 1015.19 1014.97 1014.80 1014.77 1014.99 1014.88 1014.61 1014.31 1014.22 1014.27 1014.32 1014.32 1014.23 1014.07 1014.06 1014.18 1013.98 1013.92 1013.96 1013.97 1014.10 1014.21 1014.19 1014.09 1013.86 1013.78 1013.69 1013.50 1013.29 1013.10 1013.04 1012.98 1012.96 1012.98 1013.00 1012.94 1012.85 1012.72 1012.64
Wind_Speed
13 15 11 10 9 8 5 6 8 7 9 11 8 5 6 2 2 1 1 3 3 3 8 3 3 2 2 1 2 5 3 3 3 3 3 3 3 3 4 3 2 5 6 4 3 3 6 2 7 8 1 2 8 9
11 11 8 12 10 9 6 5 7 7 8 10 10 4 6 1 2 2 0 2 1 4 5 3 12 15 10 7 4 2 4 0 3 3 2 4 4 4 4 5 1 4 1 4 2 2 2 2 3 2 3 8 8 10
13 11 9 9 8 8 6 5 6 7 7 9 10 6 5 1 2 2 1 1 2 3 5 4 4 2 5 11 11 3 1 4 1 2 2 2 4 3 5 4 5 3 2 4 6 3 3 3 3 3 5 10 9 9
12 12 11 9 6 6 6 5 5 6 7 8 8 7 4 1 1 2 2 1 2 2 4 3 3 4 3 3 10 10 1 3 3 2 1 2 3 3 3 5 2 2 8 8 4 3 4 3 4 5 9 10 11 10
11 11 9 9 7 6 6 5 5 5 7 8 9 7 4 2 3 1 2 2 3 3 4 6 11 2 5 4 7 8 6 4 2 1 2 3 2 3 2 2 4 6 7 7 5 11 3 9 6 5 9 9 8 9
8 9 10 7 5 5 6 6 5 5 6 7 8 7 4 2 3 1 2 3 3 2 3 4 4 4 5 2 6 5 3 1 1 2 3 3 2 2 3 3 3 5 4 3 5 11 6 12 9 8 11 10 9 9
6 7 7 6 6 6 5 5 4 4 6 7 6 6 5 0 1 2 2 2 5 1 3 5 4 2 3 1 2 2 2 2 3 2 2 2 3 2 2 2 9 6 5 6 12 13 8 8 7 8 11 11 12 12
5 4 3 4 2 2 4 3 3 4 6 6 5 4 4 2 4 3 1 6 5 3 2 3 3 0 5 1 3 3 2 2 5 2 1 3 2 2 2 2 8 8 9 11 7 4 7 13 12 11 11 10 11 10
4 4 5 4 2 2 3 2 3 5 6 4 1 2 1 1 1 2 5 10 2 3 3 2 3 3 6 2 2 2 3 3 1 2 2 2 1 3 2 4 9 9 6 12 8 10 13 13 12 10 11 10 11 9
5 4 4 3 3 3 2 2 3 5 1 3 1 2 1 1 4 1 4 2 3 1 0 2 1 1 3 1 3 2 2 2 2 2 1 1 2 4 4 3 4 8 10 14 14 10 11 11 11 11 10 8 8 8
6 5 3 4 3 2 1 3 5 6 3 1 1 1 2 5 1 0 1 2 1 2 1 1 2 3 2 1 3 1 3 2 4 3 3 3 3 4 3 5 5 9 10 9 6 10 10 13 12 12 10 9 8 8
5 4 4 3 1 1 3 6 6 1 1 1 3 2 2 1 1 1 1 1 1 2 0 2 2 2 2 2 1 1 2 2 3 4 3 3 3 1 5 6 8 10 10 9 12 14 14 13 12 11 10 9 8 8
6 4 2 0 1 3 3 8 7 2 2 1 1 2 2 0 2 1 1 2 1 1 2 4 2 2 1 2 2 1 2 3 4 3 3 2 1 3 6 8 11 10 12 14 15 14 16 14 12 11 11 9 9 9
3 2 2 3 4 2 8 5 9 3 0 1 3 4 2 1 2 2 3 3 3 3 5 5 2 2 2 0 2 2 3 3 3 3 2 0 3 7 8 9 12 13 13 15 15 15 15 13 12 10 9 9 9 9
8 10 9 8 10 9 4 6 9 3 2 2 2 2 2 3 1 3 1 2 2 3 3 2 2 1 1 1 2 2 3 2 2 1 1 0 5 8 10 11 13 13 13 13 13 14 14 13 11 10 8 8 8 7
8 7 6 7 7 5 6 5 3 2 1 1 1 1 2 3 2 3 3 3 2 3 1 1 1 2 1 1 2 1 1 1 1 1 2 2 6 8 10 10 10 11 12 13 12 13 13 12 12 11 9 8 7 6
7 2 1 5 4 2 5 2 2 2 1 3 0 2 3 4 4 2 2 3 3 3 2 2 3 2 2 2 2 2 0 2 2 2 2 3 6 8 7 10 10 11 11 12 13 12 10 9 10 9 9 7 6 5
3 1 3 3 2 2 1 1 2 3 2 1 2 1 2 3 5 3 2 2 2 3 3 4 3 2 1 2 1 1 1 1 1 3 4 5 6 7 6 8 10 9 10 8 9 9 9 10 9 6 6 6 4 4
2 2 3 8 6 2 2 1 1 2 2 2 3 2 3 4 4 5 5 4 2 1 3 1 3 1 2 1 2 1 3 2 3 3 3 4 5 7 9 8 5 10 9 8 9 7 7 8 5 6 5 5 4 3
5 2 7 9 7 3 3 1 0 2 2 3 3 3 3 4 3 3 4 2 2 1 2 2 2 2 1 2 1 2 3 4 5 6 6 5 4 8 8 8 5 5 4 6 7 5 6 5 5 4 5 4 3 4
3 3 5 5 2 2 3 3 2 3 4 3 3 3 3 2 2 1 1 1 1 2 2 2 3 2 1 3 3 5 4 1 2 3 3 3 2 4 3 5 7 7 6 6 6 5 5 5 3 4 4 5 5 4
0 3 1 1 2 2 1 2 2 2 2 3 3 1 3 2 1 2 1 2 3 1 4 3 2 4 7 7 6 5 3 5 5 4 4 5 3 3 4 5 6 5 4 4 5 5 5 4 3 3 3 4 5 6
1 0 0 0 1 2 3 2 3 4 3 2 2 0 3 3 1 2 3 2 1 1 3 5 8 10 6 3 3 5 3 5 4 4 3 2 1 2 4 4 3 4 4 3 3 2 3 2 3 3 3 5 6 7
1 2 2 2 2 3 1 2 2 3 2 4 7 14 8 5 6 5 8 4 3 1 2 3 3 5 4 4 1 3 3 3 4 4 3 4 4 4 3 3 2 1 1 1 3 3 3 2 2 3 4 5 7 7
3 2 1 2 3 4 1 4 6 5 10 7 12 7 4 4 8 8 8 4 4 5 4 3 4 3 3 2 3 3 2 0 1 3 2 1 3 4 3 1 1 1 2 3 4 4 4 3 2 2 4 5 7 9
2 2 1 4 1 2 2 1 2 4 2 3 4 3 3 5 6 5 6 5 4 5 5 5 3 4 5 3 2 2 2 2 1 1 2 2 3 3 1 1 3 2 3 3 2 4 5 4 5 5 5 6 6 7
6 6 1 3 3 2 2 2 2 3 4 3 2 3 3 4 3 2 2 3 3 3 3 3 4 4 4 4 3 3 2 2 2 2 2 2 1 2 2 2 2 1 3 4 4 4 5 6 7 7 7 6 6 6
3 5 6 7 7 5 4 4 5 6 4 3 1 4 3 4 3 3 2 3 3 3 3 4 4 5 5 5 4 3 3 2 3 3 3 4 4 3 2 1 1 2 2 1 1 2 3 3 3 3 4 6 6 6
4 5 3 11 7 5 7 6 6 4 3 3 7 5 3 2 3 3 3 4 1 2 2 2 3 3 3 3 4 4 4 2 0 2 3 3 3 2 2 3 3 3 3 4 4 4 3 3 3 3 3 3 3 4
4 3 3 5 5 5 5 3 3 3 3 3 1 2 1 2 3 3 2 2 3 3 2 1 2 1 2 4 4 4 3 4 4 4 4 4 4 4 4 5 4 4 3 4 5 5 4 3 3 3 4 5 4 4
1 0 3 3 3 2 2 1 1 2 3 3 4 4 3 3 1 3 3 2 2 2 3 3 2 1 1 2 3 4 3 2 1 1 2 2 3 4 5 5 5 4 4 5 5 5 5 6 6 7 8 8 9 8
2 3 0 2 2 1 1 2 2 2 3 2 3 2 2 2 3 2 3 3 3 6 6 5 5 3 2 2 2 3 4 4 4 4 7 4 3 3 3 3 3 3 4 5 5 4 5 6 5 7 7 8 8 9
0 1 2 1 1 2 2 1 2 0 0 1 2 1 1 2 3 2 1 1 2 2 2 4 4 3 4 4 4 4 4 5 6 5 8 7 6 5 4 3 2 3 4 4 4 5 5 6 5 6 6 6 8 10
Wind_Direction
257 258 280 293 262 238 246 284 305 313 325 326 329 316 317 350 25 180 340 203 287 276 283 256 290 319 333 23 347 12 222 183 165 144 156 135 137 133 113 90 160 153 142 139 121 158 227 81 126 198 76 74 159 155
240 244 254 278 283 241 227 272 303 308 324 327 332 316 314 12 15 126 289 211 229 247 288 297 274 268 256 262 290 295 336 329 15 119 137 132 136 150 144 135 89 167 5 147 249 100 40 315 311 341 183 151 140 140
224 229 241 270 257 237 211 260 301 308 322 326 331 322 314 80 0 137 283 312 239 272 274 272 245 142 207 225 225 250 143 323 74 334 114 107 121 181 140 132 122 110 177 97 169 137 100 64 88 107 132 111 105 105
224 215 229 222 244 229 216 255 296 308 319 319 327 325 317 291 310 192 282 127 271 306 291 292 330 287 310 224 202 215 317 317 284 259 69 81 107 250 117 106 118 62 154 131 89 146 124 105 106 101 99 98 93 81
221 208 222 238 254 235 220 242 278 301 312 320 330 330 316 305 329 289 254 240 256 293 312 297 305 303 303 239 200 201 228 286 302 143 60 70 82 139 57 142 137 188 153 183 171 164 129 146 145 133 115 103 92 103
211 203 215 238 236 234 244 226 266 293 312 321 324 319 298 351 13 283 226 127 198 212 279 298 344 297 339 102 131 140 167 245 311 28 79 115 126 243 136 135 123 147 168 94 138 138 99 122 115 112 108 103 92 88
186 194 196 213 226 243 223 219 270 297 312 315 304 296 276 301 313 277 346 43 158 291 275 294 333 21 332 56 79 112 74 55 4 85 68 50 81 3 84 144 162 156 131 105 122 117 111 150 135 118 113 105 96 87
144 182 197 175 202 212 205 218 265 300 312 309 294 272 315 5 245 267 229 218 173 273 263 304 298 253 6 70 100 350 81 44 29 22 75 40 103 11 150 171 145 136 119 129 109 62 131 124 124 118 120 120 102 88
131 136 149 155 203 257 163 215 290 308 307 293 321 10 261 244 269 24 33 124 161 287 314 325 330 77 349 59 80 95 360 74 346 44 74 282 71 209 156 206 179 158 150 142 105 103 125 127 127 128 121 111 107 100
102 110 121 139 153 149 168 269 304 318 52 74 349 282 176 164 267 159 221 201 207 214 252 280 301 305 328 17 83 117 26 76 155 67 293 302 273 288 267 257 174 157 134 142 127 127 136 128 129 124 109 101 101 101
88 106 128 142 142 160 262 294 324 117 70 3 327 301 335 315 206 266 326 297 331 232 182 287 279 322 61 17 107 355 127 147 178 128 218 185 250 216 166 158 141 144 152 157 151 142 146 136 134 125 113 104 106 113
78 110 108 112 116 300 303 306 117 350 288 342 315 288 287 275 279 244 354 219 262 11 261 294 5 270 329 305 217 124 107 189 135 137 198 221 241 245 176 141 133 137 141 133 131 124 121 119 115 113 115 115 112 110
69 73 76 80 296 301 115 96 17 316 308 270 16 12 349 341 56 310 105 139 115 140 19 349 338 331 232 243 127 164 142 92 133 196 223 242 158 173 162 132 129 134 129 123 120 118 114 111 111 117 118 116 116 110
43 351 297 310 295 153 120 16 9 23 321 18 3 356 339 40 73 21 28 4 3 335 343 321 272 334 353 238 351 144 74 183 170 213 239 108 181 147 145 142 135 133 129 125 124 120 118 118 118 120 119 126 127 125
54 53 59 83 77 100 110 14 13 19 7 44 345 41 13 340 313 356 322 332 357 289 325 297 226 301 70 110 14 112 172 197 239 296 341 83 140 146 147 146 135 130 128 126 130 129 127 128 128 124 130 135 136 141
18 53 31 73 96 93 20 5 13 357 20 322 204 278 292 293 355 1 1 335 313 321 275 208 340 178 63 336 196 197 222 213 81 306 356 130 141 146 145 139 130 132 134 135 134 134 137 141 142 141 146 147 148 148
55 57 86 91 104 70 10 346 335 349 359 305 212 266 277 278 282 286 311 322 332 312 10 301 197 79 113 174 207 199 290 23 330 284 175 130 141 141 130 136 137 139 138 139 140 143 137 137 141 148 152 163 162 156
54 35 87 28 348 329 325 0 294 274 270 279 273 239 241 266 282 285 252 259 343 1 325 17 304 222 149 174 162 122 126 109 78 106 97 107 112 116 140 145 139 138 133 136 138 130 140 155 167 156 153 166 179 193
117 124 12 4 350 295 308 233 282 303 270 283 281 265 271 283 273 275 275 280 259 282 301 263 254 190 104 356 331 146 144 161 130 90 67 72 110 121 115 98 110 143 141 133 141 152 172 182 175 168 178 184 211 181
80 33 335 341 355 339 310 295 321 292 302 355 291 283 280 277 294 281 279 233 171 182 220 248 327 42 29 17 311 187 124 130 133 108 92 92 99 116 119 128 121 112 125 160 160 161 166 185 196 195 210 205 215 203
53 351 11 13 353 353 295 331 355 1 338 313 313 296 289 241 257 245 31 118 173 7 354 283 250 260 46 15 84 107 117 105 66 63 102 114 58 91 105 120 150 165 165 160 165 162 202 203 183 188 191 203 199 178
248 19 28 14 66 5 305 282 256 233 220 249 270 268 304 331 7 118 183 92 56 29 303 292 93 130 129 112 79 60 79 48 49 50 82 106 125 134 155 160 160 155 155 171 187 192 195 189 188 212 233 206 182 165
155 137 81 23 300 209 268 173 244 212 267 308 226 164 81 75 5 173 85 62 37 271 336 21 43 58 74 84 56 72 104 144 168 219 223 230 262 216 164 144 152 168 169 166 191 175 169 134 177 236 168 169 167 165
282 268 262 277 250 322 276 283 229 281 315 29 54 59 43 27 19 38 64 66 19 335 338 63 125 132 146 177 141 91 108 133 140 129 152 166 155 121 128 116 143 146 245 122 176 174 169 161 161 168 170 173 183 189
309 307 234 311 199 274 332 77 57 67 68 56 58 57 31 31 63 58 51 28 4 29 34 63 78 88 94 92 98 95 98 17 77 112 111 100 100 126 122 138 171 159 175 164 171 175 170 187 209 219 199 203 205 207
322 224 197 337 57 298 337 320 68 67 7 48 53 11 13 35 35 52 12 357 10 13 33 46 68 80 72 56 57 43 31 344 240 302 124 173 160 228 222 206 214 177 186 226 202 193 196 205 213 218 226 218 217 230
19 10 311 219 280 275 62 24 13 32 39 51 51 34 44 79 45 316 310 336 13 350 19 19 19 37 59 62 61 48 28 10 3 37 42 55 175 196 290 290 189 148 166 196 211 226 239 232 231 234 239 234 229 224
336 2 10 350 38 26 56 39 24 16 4 358 31 35 50 53 62 6 331 349 345 2 48 48 41 40 44 33 16 3 46 71 90 90 87 70 57 51 54 51 32 118 144 149 184 212 243 243 217 212 223 236 236 230
17 345 38 43 36 37 34 36 49 41 349 46 71 65 50 34 335 323 349 357 354 164 134 93 77 91 89 69 49 31 18 7 284 47 41 16 7 27 4 327 303 249 214 189 179 245 230 242 238 235 250 255 278 285
31 345 51 45 46 48 23 12 60 42 31 38 30 109 79 53 11 344 10 45 27 12 2 22 99 2 28 30 45 55 52 38 44 43 46 38 12 351 326 309 288 256 255 256 238 213 180 227 251 244 229 233 239 238
333 110 93 62 75 42 44 33 8 38 46 45 31 51 39 348 31 38 25 15 15 23 349 5 351 332 300 326 2 7 41 132 200 231 258 298 312 322 318 309 287 268 264 260 239 224 221 223 234 239 241 245 245 232
16 35 339 128 143 40 47 67 52 41 13 39 48 34 55 34 25 7 21 355 13 36 28 356 347 360 3 285 278 272 254 288 276 257 245 241 263 296 312 314 299 299 293 278 264 254 245 244 240 237 230 227 231 227
6 72 85 101 125 154 57 123 93 7 82 87 48 20 323 0 16 345 15 63 1 312 357 23 12 343 322 296 288 302 272 274 279 273 264 259 267 275 284 256 253 280 298 310 311 302 293 283 263 252 258 269 272 262